When you browse on this site, cookies collect data to enhance your experience and personalize the content and advertising you see.
Visit our Privacy Policy to learn more. By continuing to use the site, you agree to this use of cookies and data.
  • Em Portugal
  • Lista de países
  • Para 7 dias
  • Temperatura da água
  • Mapas de satélite
  • Mapa do tempo
  • Widgets de tempo
  • user-avatar
    Iniciar Sessão

    Previsão horária em Tebriz

    Hoje, 21 Fevereiro, Quinta-feira

    Tempo Temperatura Precipitação Vento Pressão Humidade
    00:00 0°C° 0 mm 1 m/s 644 mmHg 50%
    01:00 0°C° 0 mm 1 m/s 644 mmHg 50%
    02:00 0°C° 0 mm 1 m/s 644 mmHg 49%
    03:00 -1°C° 0 mm 1 m/s 643 mmHg 51%
    04:00 -1°C° 0 mm 1 m/s 643 mmHg 51%
    05:00 -2°C° 0 mm 0 m/s 643 mmHg 52%
    06:00 -3°C° 0 mm 0 m/s 643 mmHg 53%
    07:00 0°C° 0 mm 1 m/s 644 mmHg 54%
    08:00 +1°C° 0 mm 1 m/s 644 mmHg 55%
    09:00 +2°C° 0 mm 1 m/s 644 mmHg 56%
    10:00 +2°C° 0 mm 2 m/s 644 mmHg 56%
    11:00 +3°C° 0 mm 2 m/s 644 mmHg 56%
    12:00 +3°C° 0 mm 3 m/s 644 mmHg 56%
    13:00 +3°C° 0 mm 3 m/s 643 mmHg 54%
    14:00 +3°C° 0 mm 3 m/s 643 mmHg 51%
    15:00 +4°C° 0 mm 3 m/s 643 mmHg 49%
    16:00 +3°C° 0 mm 3 m/s 643 mmHg 49%
    17:00 +3°C° 0 mm 2 m/s 643 mmHg 50%
    18:00 +2°C° 0 mm 2 m/s 642 mmHg 51%
    19:00 +1°C° 0 mm 2 m/s 643 mmHg 52%
    20:00 +2°C° 0 mm 1 m/s 643 mmHg 53%
    21:00 +1°C° 0 mm 1 m/s 643 mmHg 54%
    22:00 +1°C° 0 mm 1 m/s 643 mmHg 55%
    23:00 +1°C° 0 mm 1 m/s 643 mmHg 56%

    Amanhã, 22 Fevereiro, Sexta-feira

    Tempo Temperatura Precipitação Vento Pressão Humidade
    00:00 +1°C° 0 mm 1 m/s 643 mmHg 57%
    01:00 +1°C° 0 mm 1 m/s 643 mmHg 59%
    02:00 0°C° 0 mm 1 m/s 643 mmHg 60%
    03:00 0°C° 0 mm 1 m/s 643 mmHg 62%
    04:00 0°C° 0 mm 1 m/s 643 mmHg 64%
    05:00 0°C° 0 mm 1 m/s 643 mmHg 66%
    06:00 0°C° 0 mm 1 m/s 643 mmHg 67%
    07:00 -1°C° 0 mm 2 m/s 643 mmHg 65%
    08:00 +1°C° 0 mm 2 m/s 643 mmHg 64%
    09:00 +2°C° 0 mm 2 m/s 644 mmHg 62%
    10:00 +1°C° 0 mm 3 m/s 643 mmHg 59%
    11:00 +2°C° 0 mm 3 m/s 643 mmHg 57%
    12:00 +3°C° 0 mm 4 m/s 643 mmHg 55%
    13:00 +3°C° 0 mm 3 m/s 643 mmHg 54%
    14:00 +3°C° 0 mm 3 m/s 642 mmHg 52%
    15:00 +4°C° 0 mm 3 m/s 642 mmHg 51%
    16:00 +4°C° 0 mm 2 m/s 642 mmHg 54%
    17:00 +3°C° 0 mm 2 m/s 642 mmHg 57%
    18:00 +3°C° 0 mm 1 m/s 642 mmHg 60%
    19:00 +3°C° 0 mm 1 m/s 642 mmHg 61%
    20:00 +3°C° 0 mm 1 m/s 643 mmHg 63%
    21:00 +1°C° 0 mm 0 m/s 643 mmHg 64%
    22:00 +1°C° 0 mm 0 m/s 643 mmHg 64%
    23:00 +1°C° 0 mm 0 m/s 643 mmHg 65%

    Depois de amanhã, 23 Fevereiro, Sábado

    Tempo Temperatura Precipitação Vento Pressão Humidade
    00:00 +1°C° 0 mm 0 m/s 644 mmHg 66%
    01:00 +1°C° 0 mm 0 m/s 644 mmHg 67%
    02:00 0°C° 0 mm 0 m/s 644 mmHg 68%
    03:00 0°C° 0 mm 0 m/s 644 mmHg 70%
    04:00 0°C° 0 mm 0 m/s 644 mmHg 72%
    05:00 0°C° 0 mm 0 m/s 644 mmHg 75%
    06:00 0°C° 0 mm 0 m/s 644 mmHg 77%
    07:00 +2°C° 0 mm 1 m/s 644 mmHg 75%
    08:00 +3°C° 0 mm 1 m/s 645 mmHg 72%
    09:00 +3°C° 0 mm 1 m/s 645 mmHg 70%
    10:00 +3°C° 0 mm 2 m/s 645 mmHg 65%
    11:00 +4°C° 0 mm 2 m/s 645 mmHg 61%
    12:00 +5°C° 0 mm 2 m/s 645 mmHg 56%
    13:00 +5°C° 0 mm 2 m/s 644 mmHg 54%
    14:00 +5°C° 0 mm 2 m/s 644 mmHg 53%
    15:00 +6°C° 0 mm 2 m/s 644 mmHg 51%
    16:00 +5°C° 0 mm 2 m/s 644 mmHg 53%
    17:00 +5°C° 0 mm 1 m/s 644 mmHg 56%
    18:00 +4°C° 0 mm 1 m/s 644 mmHg 58%
    19:00 +4°C° 0 mm 1 m/s 644 mmHg 59%
    20:00 +3°C° 0 mm 1 m/s 645 mmHg 60%
    21:00 +3°C° 0 mm 1 m/s 645 mmHg 60%
    22:00 +3°C° 0 mm 1 m/s 645 mmHg 60%
    23:00 +3°C° 0 mm 1 m/s 645 mmHg 60%

    24 Fevereiro, Domingo

    Tempo Temperatura Precipitação Vento Pressão Humidade
    00:00 +2°C° 0 mm 1 m/s 645 mmHg 59%
    01:00 +2°C° 0 mm 1 m/s 645 mmHg 59%
    02:00 +2°C° 0 mm 1 m/s 645 mmHg 58%
    03:00 +2°C° 0 mm 1 m/s 645 mmHg 58%
    04:00 +2°C° 0 mm 1 m/s 645 mmHg 58%
    05:00 +2°C° 0 mm 1 m/s 645 mmHg 58%
    06:00 +1°C° 0 mm 1 m/s 645 mmHg 59%
    07:00 +2°C° 0 mm 1 m/s 646 mmHg 56%
    08:00 +3°C° 0 mm 1 m/s 646 mmHg 54%
    09:00 +4°C° 0 mm 1 m/s 647 mmHg 51%
    10:00 +5°C° 0 mm 1 m/s 646 mmHg 49%
    11:00 +6°C° 0 mm 1 m/s 646 mmHg 47%
    12:00 +6°C° 0 mm 2 m/s 646 mmHg 45%
    13:00 +6°C° 0 mm 2 m/s 646 mmHg 45%
    14:00 +6°C° 0 mm 2 m/s 646 mmHg 44%
    15:00 +7°C° 0 mm 2 m/s 646 mmHg 43%
    16:00 +7°C° 0 mm 1 m/s 646 mmHg 46%
    17:00 +6°C° 0 mm 1 m/s 646 mmHg 49%
    18:00 +5°C° 0 mm 1 m/s 645 mmHg 53%
    19:00 +4°C° 0 mm 1 m/s 646 mmHg 53%
    20:00 +3°C° 0 mm 0 m/s 646 mmHg 53%
    21:00 +2°C° 0 mm 0 m/s 647 mmHg 53%
    22:00 +2°C° 0 mm 0 m/s 647 mmHg 53%
    23:00 +2°C° 0 mm 0 m/s 647 mmHg 53%

    25 Fevereiro, Segunda-feira

    Tempo Temperatura Precipitação Vento Pressão Humidade
    00:00 +2°C° 0 mm 0 m/s 647 mmHg 54%
    01:00 +1°C° 0 mm 0 m/s 646 mmHg 53%
    02:00 +1°C° 0 mm 0 m/s 646 mmHg 53%
    03:00 +1°C° 0 mm 0 m/s 646 mmHg 52%
    04:00 +1°C° 0 mm 0 m/s 646 mmHg 51%
    05:00 +2°C° 0 mm 1 m/s 646 mmHg 50%
    06:00 +2°C° 0 mm 1 m/s 646 mmHg 49%
    07:00 +3°C° 0 mm 1 m/s 646 mmHg 46%
    08:00 +4°C° 0 mm 1 m/s 647 mmHg 43%
    09:00 +5°C° 0 mm 1 m/s 647 mmHg 40%
    10:00 +6°C° 0 mm 1 m/s 647 mmHg 40%
    11:00 +5°C° 0 mm 2 m/s 646 mmHg 39%
    12:00 +6°C° 0 mm 2 m/s 646 mmHg 38%
    13:00 +6°C° 0 mm 2 m/s 645 mmHg 38%
    14:00 +7°C° 0 mm 2 m/s 645 mmHg 38%
    15:00 +7°C° 0 mm 2 m/s 645 mmHg 37%
    16:00 +6°C° 0 mm 2 m/s 644 mmHg 40%
    17:00 +5°C° 0 mm 2 m/s 644 mmHg 43%
    18:00 +5°C° 0 mm 1 m/s 643 mmHg 46%
    19:00 +5°C° 0 mm 1 m/s 643 mmHg 47%
    20:00 +4°C° 0 mm 1 m/s 643 mmHg 47%
    21:00 +4°C° 0 mm 1 m/s 643 mmHg 48%
    22:00 +4°C° 0 mm 1 m/s 643 mmHg 48%
    23:00 +4°C° 0 mm 1 m/s 643 mmHg 48%

    26 Fevereiro, Terça-feira

    Tempo Temperatura Precipitação Vento Pressão Humidade
    00:00 +3°C° 0 mm 1 m/s 642 mmHg 48%
    01:00 +3°C° 0 mm 1 m/s 642 mmHg 49%
    02:00 +3°C° 0 mm 1 m/s 642 mmHg 49%
    03:00 +3°C° 0 mm 1 m/s 641 mmHg 50%
    04:00 +3°C° 0 mm 1 m/s 641 mmHg 51%
    05:00 +3°C° 0 mm 1 m/s 641 mmHg 51%
    06:00 +2°C° 0 mm 1 m/s 640 mmHg 52%
    07:00 +4°C° 0 mm 1 m/s 640 mmHg 50%
    08:00 +5°C° 0 mm 1 m/s 640 mmHg 48%
    09:00 +6°C° 0 mm 1 m/s 640 mmHg 46%
    10:00 +6°C° 0 mm 2 m/s 639 mmHg 44%
    11:00 +6°C° 0 mm 2 m/s 638 mmHg 43%
    12:00 +7°C° 0 mm 2 m/s 637 mmHg 42%
    13:00 +7°C° 0.1 mm 2 m/s 637 mmHg 47%
    14:00 +5°C° 0.1 mm 3 m/s 636 mmHg 53%
    15:00 +5°C° 0.1 mm 3 m/s 635 mmHg 59%
    16:00 +4°C° 0.5 mm 3 m/s 635 mmHg 64%
    17:00 +5°C° 0.5 mm 2 m/s 634 mmHg 69%
    18:00 +4°C° 0.5 mm 2 m/s 634 mmHg 75%
    19:00 +4°C° 0.4 mm 2 m/s 633 mmHg 76%
    20:00 +5°C° 0.4 mm 1 m/s 633 mmHg 78%
    21:00 +3°C° 0.4 mm 0 m/s 632 mmHg 79%
    22:00 +4°C° 0.2 mm 1 m/s 632 mmHg 80%
    23:00 +4°C° 0.2 mm 1 m/s 631 mmHg 81%
    Mostrar mais